Skip Page Navigation
NASA JPL Caltech
NASA Logo - Jet Propulsion Laboratory + View the NASA Portal
+ Center for Near-Earth Object Studies
JPL Home Earth Solar System Stars & Galaxies Technology
JPL Solar System Dynamics
BODIES ORBITS EPHEMERIDES TOOLS PHYSICAL DATA DISCOVERY FAQ SITE MAP
IMPORTANT: The SSD Announcement email list is now available. Major changes are coming in the near future, including possible hostname and/or URL changes. To be notified of such changes, subscribe to this email list.

Please visit this page for more details.


JPL Small-Body Database Browser
Search: [ help ]  
136442 (2005 EE62)
Classification: Main-belt Asteroid          SPK-ID: 2136442
Ephemeris | Orbit Diagram | Orbital Elements | Mission Design | Physical Parameters | Discovery Circumstances ]

[ show orbit diagram ]
Orbital Elements at Epoch 2458600.5 (2019-Apr-27.0) TDB
Reference: JPL 20 (heliocentric ecliptic J2000)
 Element Value Uncertainty (1-sigma)   Units 
e .03847762177528056 4.8313e-08  
a 2.174396392550845 1.1867e-08 au
q 2.090730790568739 1.1204e-07 au
i .5825932312047578 4.3223e-06 deg
node 59.19655296427148 0.00047149 deg
peri .01003726947398101 0.00047651 deg
M 241.7226174692299 7.0485e-05 deg
tp 2458985.273992302273
(2020-May-15.77399230)
0.00023062 TDB
period 1171.133772704028
3.21
9.5877e-06
2.625e-08
d
yr
n .3073944312687668 2.5165e-09 deg/d
Q 2.258061994532951 1.2324e-08 au
  Orbit Determination Parameters
   # obs. used (total)      481  
   data-arc span      7504 days (20.54 yr)  
   first obs. used      1999-04-15  
   last obs. used      2019-10-31  
   planetary ephem.      DE431  
   SB-pert. ephem.      SB431-N16  
   condition code      0  
   norm. resid. RMS      .59376  
   source      ORB  
   producer      Otto Matic  
   solution date      2019-Nov-07 16:03:01  

Additional Information
 Earth MOID = 1.102 au 
 Jupiter MOID = 2.83139 au 
 T_jup = 3.685 
[ show covariance matrix ]

Ephemeris | Orbit Diagram | Orbital Elements | Mission Design | Physical Parameters | Discovery Circumstances ]

Physical Parameter Table
Parameter Symbol Value Units Sigma Reference Notes
absolute magnitude H 16.9   n/a MPO436672  

136442 (2005 EE62)          Discovered 2005-Mar-04 by Mt. Lemmon Survey at Mt. Lemmon
Reference: 20060907/Numbers.arcLast Updated: 2006-09-10

Alternate Designations
 2005 EE62 = 2000 SD204 
Ephemeris | Orbit Diagram | Orbital Elements | Mission Design | Physical Parameters | Discovery Circumstances ]
ABOUT SSD CREDITS/AWARDS PRIVACY/COPYRIGHT GLOSSARY LINKS
FirstGov
(server date/time)  
NASA Home Page
Site Manager:   Ryan S. Park
Webmaster  Alan B. Chamberlin